Regional Weather Roundup
Issued by NWS

Home | Current Version | Previous Version | Graphics & Text | Print | Product List | Glossary On
Versions: 1 2 3 4 5 6 7 8 9 10 11 12 13 14 15 16 17 18 19 20 21 22 23 24 25 26 27 28 29 30 31 32 33 34 35 36 37 38 39 40 41 42 43 44 45 46 47 48 49 50
000
ASUS45 KABQ 090810
RWRNM
NEW MEXICO REGIONAL WEATHER ROUNDUP
NATIONAL WEATHER SERVICE ALBUQUERQUE NM
100 AM MST FRI DEC 09 2016

NOTE: "FAIR" MEANS FEW OR NO CLOUDS BELOW 12,000 FEET AGL WITH NO
       SIGNIFICANT WEATHER OR OBSTRUCTIONS TO VISION.

      THIS PRODUCT IS RELEASED AS TWO VERSIONS.  ONE VERSION NEAR
      THE TOP OF THE HOUR CONTAINING PRELIMINARY DATA FROM ALBUQUERQUE
      AND OTHER STATIONS.  A FINAL VERSION WITH ADDITIONAL DATA IS
      ISSUED ABOUT 10 MINUTES AFTER THE HOUR.

NMZ501-503-504-510>518-090900-
NORTHWEST PLATEAU/NORTHCENTRAL MOUNTAINS

CITY           SKY/WX    TMP DP  RH WIND       PRES   REMARKS
FARMINGTON     FAIR      28  17  63 E6        30.29S WCI  22
LOS ALAMOS     FAIR      24  15  66 E3        30.32F
SANTA FE       FAIR      22  13  68 N5        30.33F WCI  16
TAOS           FAIR      16   3  57 CALM      30.30F
ANGEL FIRE     FAIR      28  14  55 SW5       30.23S WCI  23

$$
NMZ402-403-502-505>509-090900-
WESTCENTRAL MOUNTAINS/SOUTHWEST MOUNTAINS

CITY           SKY/WX    TMP DP  RH WIND       PRES   REMARKS
GALLUP         FAIR      24  18  77 NE3       30.30F
GRANTS         FAIR      18  15  88 NW6       30.33S WCI   9
SILVER CITY    FAIR      23  21  92 NW5       30.38S WCI  17

$$
NMZ407-409-411-412-090900-
SOUTHERN DESERTS

CITY           SKY/WX    TMP DP  RH WIND       PRES   REMARKS
DEMING         FAIR      27  24  89 E7        30.40S WCI  19
LAS CRUCES     FAIR      28  24  85 SE9       30.42R WCI  19
HOLLOMAN AFB   FAIR      22  16  78 NE3       30.48R
T OR C         FAIR      31  24  75 SW5       30.37F WCI  26

$$
NMZ519>523-090900-
CENTRAL VALLEYS/CENTRAL HIGHLANDS

CITY           SKY/WX    TMP DP  RH WIND       PRES   REMARKS
ALBUQUERQUE    FAIR      27  21  78 SE7       30.36F WCI  19
DOUBLE EAGLE   FAIR      21  14  74 S3        30.35F
MORIARTY ARPT  FAIR      10   7  85 NE3       30.35S
CLINES CORNERS FAIR      21  19  92 SW15      30.30F WCI   8
BELEN          FAIR      27  23  85 SE3       30.36S
SOCORRO        FAIR      27  23  84 S8        30.36F WCI  19

$$
NMZ524>526-539-540-090900-
SOUTHCENTRAL MOUNTAINS

CITY           SKY/WX    TMP DP  RH WIND       PRES   REMARKS
RUIDOSO        FAIR      23  23 100 NW6       30.34F WCI  16

$$
NMZ527>531-090900-
NORTHEAST HIGHLANDS/NORTHEAST PLAINS

CITY           SKY/WX    TMP DP  RH WIND       PRES   REMARKS
LAS VEGAS      FAIR      13  11  92 MISG      30.21F
RATON          CLOUDY    18  15  88 SE3       30.24F FOG
CLAYTON        CLOUDY    22  20  92 SW18      30.28F WCI   7

$$
NMZ532>537-090900-
EASTCENTRAL PLAINS

CITY           SKY/WX    TMP DP  RH WIND       PRES   REMARKS
TUCUMCARI      CLOUDY    29  21  72 SW18      30.36F WCI  16
CANNON AFB     CLOUDY    27  25  93 SW16      30.40F WCI  14
CLOVIS AIRPORT CLOUDY    27  18  69 S17       30.40F WCI  14

$$
NMZ028-029-538-090900-
SOUTHEAST PLAINS

CITY           SKY/WX    TMP DP  RH WIND       PRES   REMARKS
ROSWELL        CLOUDY    28  22  78 S13       30.46F WCI  17
ARTESIA        CLOUDY    28  27  93 S15       30.47F WCI  17
CARLSBAD       NOT AVBL


$$




USA.gov is the U.S. government's official web portal to all federal, state and local government web resources and services.